Time,TemperatureF,DewpointF,PressureIn,WindDirection,WindDirectionDegrees,WindSpeedMPH,WindSpeedGustMPH,Humidity,HourlyPrecipIn,Conditions,Clouds,dailyrainin,SoftwareType,DateUTC
2013-03-26 00:00:00,37.2,11.4,28.64,NW,308,2.8,5.6,34,0.00,,,0.00,WSDL version 420,2013-03-26 04:00:00,
2013-03-26 00:02:00,37.2,11.4,28.64,SW,214,2.9,5.6,34,0.00,,,0.00,WSDL version 420,2013-03-26 04:02:00,
2013-03-26 00:06:00,37.2,11.4,28.64,East,79,0.3,5.6,34,0.00,,,0.00,WSDL version 420,2013-03-26 04:06:00,
2013-03-26 00:08:00,37.2,11.4,28.64,SSE,158,0.8,5.6,34,0.00,,,0.00,WSDL version 420,2013-03-26 04:08:00,
2013-03-26 00:12:00,37.2,11.4,28.64,South,180,2.0,3.1,34,0.00,,,0.00,WSDL version 420,2013-03-26 04:12:00,
2013-03-26 00:14:00,37.2,11.4,28.64,NNE,18,2.1,3.8,34,0.00,,,0.00,WSDL version 420,2013-03-26 04:14:00,
2013-03-26 00:16:00,37.2,11.4,28.64,WNW,300,2.9,3.8,34,0.00,,,0.00,WSDL version 420,2013-03-26 04:16:00,
2013-03-26 00:18:00,37.1,11.3,28.64,NNE,28,3.8,6.5,34,0.00,,,0.00,WSDL version 420,2013-03-26 04:18:00,
2013-03-26 00:20:00,37.0,11.3,28.64,North,360,4.9,7.4,34,0.00,,,0.00,WSDL version 420,2013-03-26 04:20:00,
2013-03-26 00:22:00,37.0,11.3,28.64,North,3,5.0,7.6,34,0.00,,,0.00,WSDL version 420,2013-03-26 04:22:00,
2013-03-26 00:24:00,36.9,11.4,28.64,NNE,23,4.8,7.6,35,0.00,,,0.00,WSDL version 420,2013-03-26 04:24:00,
2013-03-26 00:26:00,36.9,11.4,28.64,NE,38,6.1,7.6,35,0.00,,,0.00,WSDL version 420,2013-03-26 04:26:00,
2013-03-26 00:32:00,36.7,11.9,28.67,ESE,113,1.8,7.4,36,0.00,,,0.00,WSDL version 420,2013-03-26 04:32:00,
2013-03-26 00:34:00,36.7,12.1,28.67,NE,45,1.7,4.9,36,0.00,,,0.00,WSDL version 420,2013-03-26 04:34:00,
2013-03-26 00:36:00,36.6,12.3,28.67,SSW,194,2.2,4.5,37,0.00,,,0.00,WSDL version 420,2013-03-26 04:36:00,
2013-03-26 00:38:00,36.5,12.5,28.67,WSW,242,2.5,4.9,37,0.00,,,0.00,WSDL version 420,2013-03-26 04:38:00,
2013-03-26 00:40:00,36.5,12.7,28.67,WNW,285,2.6,4.9,37,0.00,,,0.00,WSDL version 420,2013-03-26 04:40:00,
2013-03-26 00:42:00,36.4,12.7,28.67,SW,214,2.5,4.9,38,0.00,,,0.00,WSDL version 420,2013-03-26 04:42:00,
2013-03-26 00:44:00,36.3,12.8,28.67,WNW,293,2.5,4.9,37,0.00,,,0.00,WSDL version 420,2013-03-26 04:44:00,
2013-03-26 00:46:00,36.3,12.7,28.67,SSW,203,1.7,4.9,37,0.00,,,0.00,WSDL version 420,2013-03-26 04:46:00,
2013-03-26 00:50:00,36.2,13.0,28.67,South,184,2.2,4.3,38,0.00,,,0.00,WSDL version 420,2013-03-26 04:50:00,
2013-03-26 00:54:00,36.1,13.3,28.67,SSW,203,3.4,7.4,39,0.00,,,0.00,WSDL version 420,2013-03-26 04:54:00,
2013-03-26 00:56:00,36.0,13.5,28.67,East,90,3.3,7.4,39,0.00,,,0.00,WSDL version 420,2013-03-26 04:56:00,
2013-03-26 01:02:00,35.9,13.4,28.67,ENE,62,2.9,7.4,39,0.00,,,0.00,WSDL version 420,2013-03-26 05:02:00,
2013-03-26 01:04:00,35.8,13.4,28.67,WSW,240,2.6,6.3,40,0.00,,,0.00,WSDL version 420,2013-03-26 05:04:00,
2013-03-26 01:08:00,35.8,13.5,28.67,WNW,293,1.7,4.9,40,0.00,,,0.00,WSDL version 420,2013-03-26 05:08:00,
2013-03-26 01:10:00,35.7,13.5,28.67,SSE,165,1.9,4.3,40,0.00,,,0.00,WSDL version 420,2013-03-26 05:10:00,
2013-03-26 01:12:00,35.7,13.6,28.67,NNW,338,2.3,4.3,40,0.00,,,0.00,WSDL version 420,2013-03-26 05:12:00,
2013-03-26 01:16:00,35.6,13.3,28.67,NE,56,3.1,4.0,40,0.00,,,0.00,WSDL version 420,2013-03-26 05:16:00,
2013-03-26 01:18:00,35.5,13.4,28.67,NE,56,3.5,6.0,40,0.00,,,0.00,WSDL version 420,2013-03-26 05:18:00,
2013-03-26 01:22:00,35.4,13.5,28.67,NW,315,1.9,6.0,40,0.00,,,0.00,WSDL version 420,2013-03-26 05:22:00,
2013-03-26 01:24:00,35.4,13.5,28.67,WNW,297,2.6,6.0,40,0.00,,,0.00,WSDL version 420,2013-03-26 05:24:00,
2013-03-26 01:26:00,35.4,13.5,28.67,NNE,27,2.3,6.0,40,0.00,,,0.00,WSDL version 420,2013-03-26 05:26:00,
2013-03-26 01:30:00,35.3,13.6,28.67,SSW,203,3.1,4.3,40,0.00,,,0.00,WSDL version 420,2013-03-26 05:30:00,
2013-03-26 01:36:00,35.1,13.5,28.67,WNW,296,1.0,4.0,40,0.00,,,0.00,WSDL version 420,2013-03-26 05:36:00,
2013-03-26 01:38:00,35.1,13.5,28.67,North,360,1.7,4.0,41,0.00,,,0.00,WSDL version 420,2013-03-26 05:38:00,
2013-03-26 01:42:00,35.0,13.6,28.67,NNW,338,1.9,4.0,41,0.00,,,0.00,WSDL version 420,2013-03-26 05:42:00,
2013-03-26 01:47:00,34.7,13.4,28.67,West,270,2.7,4.7,41,0.00,,,0.00,WSDL version 420,2013-03-26 05:47:00,
2013-03-26 01:49:00,34.8,13.5,28.67,NW,326,2.6,5.6,41,0.00,,,0.00,WSDL version 420,2013-03-26 05:49:00,
2013-03-26 01:51:00,34.9,13.7,28.67,SSW,197,2.9,5.6,42,0.00,,,0.00,WSDL version 420,2013-03-26 05:51:00,
2013-03-26 01:55:00,34.8,13.9,28.67,WSW,251,2.3,5.6,42,0.00,,,0.00,WSDL version 420,2013-03-26 05:55:00,
2013-03-26 02:01:00,34.7,14.0,28.67,SSW,210,2.9,4.3,42,0.00,,,0.00,WSDL version 420,2013-03-26 06:01:00,
2013-03-26 02:05:00,34.7,14.0,28.67,SW,234,3.1,5.8,42,0.00,,,0.00,WSDL version 420,2013-03-26 06:05:00,
2013-03-26 02:11:00,34.6,13.8,28.67,NW,324,1.8,9.4,42,0.00,,,0.00,WSDL version 420,2013-03-26 06:11:00,
2013-03-26 02:13:00,34.6,13.8,28.67,NNW,338,4.4,9.4,42,0.00,,,0.00,WSDL version 420,2013-03-26 06:13:00,
2013-03-26 02:19:00,34.5,13.8,28.67,SW,219,0.7,9.4,42,0.00,,,0.00,WSDL version 420,2013-03-26 06:19:00,
2013-03-26 02:21:00,34.5,13.8,28.67,NNW,330,2.1,5.6,42,0.00,,,0.00,WSDL version 420,2013-03-26 06:21:00,
2013-03-26 02:23:00,34.5,13.8,28.67,South,188,2.1,5.6,42,0.00,,,0.00,WSDL version 420,2013-03-26 06:23:00,
2013-03-26 02:29:00,34.4,13.7,28.67,North,10,3.8,4.3,42,0.00,,,0.00,WSDL version 420,2013-03-26 06:29:00,
2013-03-26 02:33:00,34.3,13.8,28.67,SSE,158,2.1,4.3,42,0.00,,,0.00,WSDL version 420,2013-03-26 06:33:00,
2013-03-26 02:35:00,34.3,13.9,28.67,North,5,1.6,4.7,43,0.00,,,0.00,WSDL version 420,2013-03-26 06:35:00,
2013-03-26 02:39:00,34.3,14.2,28.67,WSW,251,2.5,4.7,43,0.00,,,0.00,WSDL version 420,2013-03-26 06:39:00,
2013-03-26 02:45:00,34.3,13.7,28.64,WSW,248,3.0,4.9,43,0.00,,,0.00,WSDL version 420,2013-03-26 06:45:00,
2013-03-26 02:47:00,34.3,13.9,28.64,SE,135,1.9,4.9,43,0.00,,,0.00,WSDL version 420,2013-03-26 06:47:00,
2013-03-26 02:53:00,34.2,14.0,28.64,North,5,2.7,5.4,43,0.00,,,0.00,WSDL version 420,2013-03-26 06:53:00,
2013-03-26 02:57:00,34.1,13.9,28.64,SW,236,2.7,5.8,43,0.00,,,0.00,WSDL version 420,2013-03-26 06:57:00,
2013-03-26 02:59:00,34.0,13.9,28.64,NW,304,3.0,5.8,43,0.00,,,0.00,WSDL version 420,2013-03-26 06:59:00,
2013-03-26 03:05:00,34.1,13.9,28.64,West,259,2.8,7.2,43,0.00,,,0.00,WSDL version 420,2013-03-26 07:05:00,
2013-03-26 03:07:00,34.2,14.0,28.64,WNW,287,2.5,7.2,43,0.00,,,0.00,WSDL version 420,2013-03-26 07:07:00,
2013-03-26 03:13:00,34.0,13.9,28.67,WSW,251,2.6,4.0,43,0.00,,,0.00,WSDL version 420,2013-03-26 07:13:00,
2013-03-26 03:15:00,34.0,13.8,28.67,SSW,197,3.6,5.6,43,0.00,,,0.00,WSDL version 420,2013-03-26 07:15:00,
2013-03-26 03:21:00,34.0,13.8,28.67,West,281,2.2,5.6,43,0.00,,,0.00,WSDL version 420,2013-03-26 07:21:00,
2013-03-26 03:23:00,34.0,13.8,28.67,WSW,239,2.8,5.6,43,0.00,,,0.00,WSDL version 420,2013-03-26 07:23:00,
2013-03-26 03:27:00,34.0,13.8,28.64,SW,230,2.3,5.4,43,0.00,,,0.00,WSDL version 420,2013-03-26 07:27:00,
2013-03-26 03:33:00,34.0,13.8,28.64,SW,218,3.6,5.6,43,0.00,,,0.00,WSDL version 420,2013-03-26 07:33:00,
2013-03-26 03:37:00,34.0,13.8,28.64,ENE,60,3.9,5.8,43,0.00,,,0.00,WSDL version 420,2013-03-26 07:37:00,
2013-03-26 03:39:00,34.0,13.7,28.64,NNE,27,3.5,5.8,43,0.00,,,0.00,WSDL version 420,2013-03-26 07:39:00,
2013-03-26 03:45:00,34.0,13.7,28.64,WSW,244,4.0,5.8,43,0.00,,,0.00,WSDL version 420,2013-03-26 07:45:00,
2013-03-26 03:47:00,34.0,13.7,28.64,NW,304,3.1,5.6,43,0.00,,,0.00,WSDL version 420,2013-03-26 07:47:00,
2013-03-26 03:51:00,33.9,13.8,28.64,SW,236,2.9,5.6,43,0.00,,,0.00,WSDL version 420,2013-03-26 07:51:00,
2013-03-26 03:53:00,33.8,13.7,28.64,SW,219,2.8,5.8,43,0.00,,,0.00,WSDL version 420,2013-03-26 07:53:00,
2013-03-26 03:57:00,33.8,13.7,28.64,WSW,248,2.2,6.3,43,0.00,,,0.00,WSDL version 420,2013-03-26 07:57:00,
2013-03-26 03:59:00,33.8,13.7,28.64,West,259,3.0,6.3,43,0.00,,,0.00,WSDL version 420,2013-03-26 07:59:00,
2013-03-26 04:01:00,33.8,13.7,28.64,SW,219,2.6,6.3,43,0.00,,,0.00,WSDL version 420,2013-03-26 08:01:00,
2013-03-26 04:03:00,33.8,13.7,28.64,WSW,257,2.1,6.3,43,0.00,,,0.00,WSDL version 420,2013-03-26 08:03:00,
2013-03-26 04:07:00,33.8,13.7,28.64,WSW,248,2.6,4.3,43,0.00,,,0.00,WSDL version 420,2013-03-26 08:07:00,
2013-03-26 04:09:00,33.8,13.7,28.64,SSW,197,2.6,4.3,43,0.00,,,0.00,WSDL version 420,2013-03-26 08:09:00,
2013-03-26 04:15:00,33.6,13.5,28.64,WSW,255,1.3,4.3,43,0.00,,,0.00,WSDL version 420,2013-03-26 08:15:00,
2013-03-26 04:17:00,33.6,13.5,28.64,SSW,203,1.1,4.3,43,0.00,,,0.00,WSDL version 420,2013-03-26 08:17:00,
2013-03-26 04:21:00,33.6,13.5,28.64,NNW,332,2.5,4.3,43,0.00,,,0.00,WSDL version 420,2013-03-26 08:21:00,
2013-03-26 04:23:00,33.6,13.6,28.64,West,266,2.4,6.3,44,0.00,,,0.00,WSDL version 420,2013-03-26 08:23:00,
2013-03-26 04:25:00,33.6,13.6,28.64,NE,34,3.0,6.3,43,0.00,,,0.00,WSDL version 420,2013-03-26 08:25:00,
2013-03-26 04:27:00,33.6,13.6,28.64,WNW,293,1.6,6.3,43,0.00,,,0.00,WSDL version 420,2013-03-26 08:27:00,
2013-03-26 04:31:00,33.7,13.5,28.64,WSW,240,2.5,6.5,43,0.00,,,0.00,WSDL version 420,2013-03-26 08:31:00,
2013-03-26 04:37:00,33.7,13.3,28.64,West,259,2.9,6.5,43,0.00,,,0.00,WSDL version 420,2013-03-26 08:37:00,
2013-03-26 04:39:00,33.7,13.6,28.64,WSW,240,2.8,4.0,43,0.00,,,0.00,WSDL version 420,2013-03-26 08:39:00,
2013-03-26 04:43:00,33.8,13.7,28.64,SW,214,2.5,5.8,43,0.00,,,0.00,WSDL version 420,2013-03-26 08:43:00,
2013-03-26 04:45:00,33.7,13.6,28.64,NW,323,2.5,5.8,43,0.00,,,0.00,WSDL version 420,2013-03-26 08:45:00,
2013-03-26 04:47:00,33.7,13.5,28.64,NE,41,1.3,5.8,43,0.00,,,0.00,WSDL version 420,2013-03-26 08:47:00,
2013-03-26 04:51:00,33.6,13.7,28.64,NW,304,3.6,3.6,44,0.00,,,0.00,WSDL version 420,2013-03-26 08:51:00,
2013-03-26 04:53:00,33.5,13.7,28.64,NNE,17,3.4,3.6,43,0.00,,,0.00,WSDL version 420,2013-03-26 08:53:00,
2013-03-26 04:57:00,33.5,13.4,28.64,SW,219,2.4,4.0,43,0.00,,,0.00,WSDL version 420,2013-03-26 08:57:00,
2013-03-26 04:59:00,33.5,13.5,28.64,West,270,1.9,4.0,43,0.00,,,0.00,WSDL version 420,2013-03-26 08:59:00,
2013-03-26 05:01:00,33.5,13.5,28.64,NW,326,2.1,4.0,43,0.00,,,0.00,WSDL version 420,2013-03-26 09:01:00,
2013-03-26 05:05:00,33.6,13.5,28.64,WSW,242,2.6,4.0,43,0.00,,,0.00,WSDL version 420,2013-03-26 09:05:00,
2013-03-26 05:07:00,33.6,13.5,28.64,West,261,1.4,3.4,43,0.00,,,0.00,WSDL version 420,2013-03-26 09:07:00,
2013-03-26 05:11:00,33.6,13.5,28.64,ESE,120,3.4,7.2,43,0.00,,,0.00,WSDL version 420,2013-03-26 09:11:00,
2013-03-26 05:13:00,33.6,13.5,28.64,West,264,2.7,7.2,43,0.00,,,0.00,WSDL version 420,2013-03-26 09:13:00,
2013-03-26 05:15:00,33.6,13.5,28.64,WNW,297,3.1,7.2,43,0.00,,,0.00,WSDL version 420,2013-03-26 09:15:00,
2013-03-26 05:17:00,33.6,13.5,28.64,WSW,251,2.5,7.2,43,0.00,,,0.00,WSDL version 420,2013-03-26 09:17:00,
2013-03-26 05:19:00,33.6,13.5,28.64,NW,320,2.6,7.2,43,0.00,,,0.00,WSDL version 420,2013-03-26 09:19:00,
2013-03-26 05:25:00,33.6,13.5,28.64,SSW,203,3.2,8.1,43,0.00,,,0.00,WSDL version 420,2013-03-26 09:25:00,
2013-03-26 05:29:00,33.6,13.4,28.61,SW,236,2.7,8.1,42,0.00,,,0.00,WSDL version 420,2013-03-26 09:29:00,
2013-03-26 05:31:00,33.6,13.2,28.61,West,263,2.8,6.0,42,0.00,,,0.00,WSDL version 420,2013-03-26 09:31:00,
2013-03-26 05:35:00,33.7,13.1,28.61,West,259,3.0,4.9,42,0.00,,,0.00,WSDL version 420,2013-03-26 09:35:00,
2013-03-26 05:39:00,33.7,13.1,28.61,NW,304,1.7,4.9,42,0.00,,,0.00,WSDL version 420,2013-03-26 09:39:00,
2013-03-26 05:45:00,33.6,13.1,28.64,West,264,1.6,4.9,42,0.00,,,0.00,WSDL version 420,2013-03-26 09:45:00,
2013-03-26 05:47:00,33.6,13.0,28.64,NW,315,1.9,4.9,42,0.00,,,0.00,WSDL version 420,2013-03-26 09:47:00,
2013-03-26 05:51:00,33.7,13.1,28.64,NW,306,3.8,7.8,42,0.00,,,0.00,WSDL version 420,2013-03-26 09:51:00,
2013-03-26 05:53:00,33.8,13.1,28.64,NE,45,4.4,8.1,42,0.00,,,0.00,WSDL version 420,2013-03-26 09:53:00,
2013-03-26 05:57:00,33.8,13.1,28.64,West,261,2.6,8.1,42,0.00,,,0.00,WSDL version 420,2013-03-26 09:57:00,
2013-03-26 05:59:00,33.7,13.1,28.64,South,180,1.3,8.1,42,0.00,,,0.00,WSDL version 420,2013-03-26 09:59:00,
2013-03-26 06:05:00,33.6,13.2,28.64,NNW,338,2.1,3.8,43,0.00,,,0.00,WSDL version 420,2013-03-26 10:05:00,
2013-03-26 06:07:00,33.6,13.4,28.64,ENE,68,1.9,3.8,43,0.00,,,0.00,WSDL version 420,2013-03-26 10:07:00,
2013-03-26 06:11:00,33.6,13.4,28.64,ENE,68,3.6,6.3,43,0.00,,,0.00,WSDL version 420,2013-03-26 10:11:00,
2013-03-26 06:17:00,33.7,13.3,28.64,SE,144,2.7,6.3,43,0.00,,,0.00,WSDL version 420,2013-03-26 10:17:00,
2013-03-26 06:19:00,33.7,13.4,28.64,SE,146,2.4,6.3,43,0.00,,,0.00,WSDL version 420,2013-03-26 10:19:00,
2013-03-26 06:23:00,33.7,13.4,28.64,NNW,345,4.7,7.2,42,0.00,,,0.00,WSDL version 420,2013-03-26 10:23:00,
2013-03-26 06:29:00,33.8,13.2,28.64,NW,325,3.1,7.2,42,0.00,,,0.00,WSDL version 420,2013-03-26 10:29:00,
2013-03-26 06:31:00,33.8,13.2,28.64,NNE,23,3.1,7.2,42,0.00,,,0.00,WSDL version 420,2013-03-26 10:31:00,
2013-03-26 06:35:00,33.9,13.2,28.64,NW,326,3.6,6.0,42,0.00,,,0.00,WSDL version 420,2013-03-26 10:35:00,
2013-03-26 06:37:00,33.9,13.2,28.64,WNW,302,2.7,6.0,42,0.00,,,0.00,WSDL version 420,2013-03-26 10:37:00,
2013-03-26 06:41:00,33.8,13.3,28.64,NNW,330,1.4,6.0,42,0.00,,,0.00,WSDL version 420,2013-03-26 10:41:00,
2013-03-26 06:43:00,33.8,13.1,28.64,West,263,2.4,6.0,42,0.00,,,0.00,WSDL version 420,2013-03-26 10:43:00,
2013-03-26 06:45:00,33.8,13.1,28.64,SW,225,1.9,6.0,42,0.00,,,0.00,WSDL version 420,2013-03-26 10:45:00,
2013-03-26 06:47:00,33.8,13.1,28.64,NW,308,2.2,4.3,42,0.00,,,0.00,WSDL version 420,2013-03-26 10:47:00,
2013-03-26 06:53:00,33.8,13.1,28.64,NNW,330,3.9,7.6,42,0.00,,,0.00,WSDL version 420,2013-03-26 10:53:00,
2013-03-26 06:55:00,33.9,13.2,28.64,NNE,28,4.9,12.3,42,0.00,,,0.00,WSDL version 420,2013-03-26 10:55:00,
2013-03-26 06:59:00,34.0,13.3,28.64,NNE,28,3.5,12.3,42,0.00,,,0.00,WSDL version 420,2013-03-26 10:59:00,
2013-03-26 07:01:00,34.0,13.3,28.64,North,357,3.6,12.3,42,0.00,,,0.00,WSDL version 420,2013-03-26 11:01:00,
2013-03-26 07:03:00,34.0,13.3,28.64,North,349,5.0,12.3,42,0.00,,,0.00,WSDL version 420,2013-03-26 11:03:00,
2013-03-26 07:07:00,34.0,13.3,28.64,North,353,5.4,7.8,42,0.00,,,0.00,WSDL version 420,2013-03-26 11:07:00,
2013-03-26 07:09:00,34.0,13.3,28.64,NNW,343,3.7,7.8,42,0.00,,,0.00,WSDL version 420,2013-03-26 11:09:00,
2013-03-26 07:13:00,34.0,13.3,28.64,North,4,5.5,9.6,42,0.00,,,0.00,WSDL version 420,2013-03-26 11:13:00,
2013-03-26 07:17:00,34.0,13.4,28.64,NNE,15,5.9,11.0,42,0.00,,,0.00,WSDL version 420,2013-03-26 11:17:00,
2013-03-26 07:19:00,34.1,13.4,28.64,NNE,30,5.8,11.0,42,0.00,,,0.00,WSDL version 420,2013-03-26 11:19:00,
2013-03-26 07:30:00,34.2,13.5,28.64,NE,45,4.3,11.9,42,0.00,,,0.00,WSDL version 420,2013-03-26 11:30:00,
2013-03-26 07:36:00,34.3,13.6,28.64,North,9,3.4,11.9,42,0.00,,,0.00,WSDL version 420,2013-03-26 11:36:00,
2013-03-26 07:40:00,34.3,13.6,28.64,WNW,297,3.6,7.6,42,0.00,,,0.00,WSDL version 420,2013-03-26 11:40:00,
2013-03-26 07:42:00,34.3,13.6,28.67,NNE,30,3.6,7.6,42,0.00,,,0.00,WSDL version 420,2013-03-26 11:42:00,
2013-03-26 07:46:00,34.3,13.6,28.67,NE,56,3.4,6.5,42,0.00,,,0.00,WSDL version 420,2013-03-26 11:46:00,
2013-03-26 07:48:00,34.3,13.6,28.67,NNW,343,2.2,6.5,42,0.00,,,0.00,WSDL version 420,2013-03-26 11:48:00,
2013-03-26 07:54:00,34.4,13.6,28.67,North,349,4.5,6.5,41,0.00,,,0.00,WSDL version 420,2013-03-26 11:54:00,
2013-03-26 07:57:00,34.4,13.6,28.67,NNE,17,5.5,8.5,42,0.00,,,0.00,WSDL version 420,2013-03-26 11:57:00,
2013-03-26 08:00:00,34.6,13.7,28.67,NNE,18,3.7,10.5,42,0.00,,,0.00,WSDL version 420,2013-03-26 12:00:00,
2013-03-26 08:07:00,34.7,13.8,28.67,NW,311,3.3,10.5,42,0.00,,,0.00,WSDL version 420,2013-03-26 12:07:00,
2013-03-26 08:08:00,34.7,13.8,28.67,NNE,30,5.6,8.5,41,0.00,,,0.00,WSDL version 420,2013-03-26 12:08:00,
2013-03-26 08:10:00,34.8,13.6,28.67,North,349,6.0,8.5,41,0.00,,,0.00,WSDL version 420,2013-03-26 12:10:00,
2013-03-26 08:12:00,34.9,13.8,28.67,NNE,23,4.7,8.5,42,0.00,,,0.00,WSDL version 420,2013-03-26 12:12:00,
2013-03-26 08:14:00,34.9,13.8,28.67,North,11,5.6,10.1,41,0.00,,,0.00,WSDL version 420,2013-03-26 12:14:00,
2013-03-26 08:16:00,34.9,13.8,28.67,NE,41,4.0,10.1,41,0.00,,,0.00,WSDL version 420,2013-03-26 12:16:00,
2013-03-26 08:18:00,35.0,13.7,28.67,North,9,4.2,10.1,41,0.00,,,0.00,WSDL version 420,2013-03-26 12:18:00,
2013-03-26 08:22:00,35.1,13.7,28.67,NNW,345,3.5,10.1,41,0.00,,,0.00,WSDL version 420,2013-03-26 12:22:00,
2013-03-26 08:24:00,35.1,13.8,28.67,North,353,3.9,8.5,41,0.00,,,0.00,WSDL version 420,2013-03-26 12:24:00,
2013-03-26 08:28:00,35.3,13.9,28.67,NNE,28,5.5,7.6,41,0.00,,,0.00,WSDL version 420,2013-03-26 12:28:00,
2013-03-26 08:30:00,35.4,14.0,28.67,North,360,3.7,7.6,41,0.00,,,0.00,WSDL version 420,2013-03-26 12:30:00,
2013-03-26 08:32:00,35.4,14.1,28.67,NNW,338,3.5,7.6,41,0.00,,,0.00,WSDL version 420,2013-03-26 12:32:00,
2013-03-26 08:36:00,35.5,14.0,28.67,North,360,3.7,7.6,40,0.00,,,0.00,WSDL version 420,2013-03-26 12:36:00,
2013-03-26 08:38:00,35.6,13.9,28.67,NE,41,3.3,7.4,41,0.00,,,0.00,WSDL version 420,2013-03-26 12:38:00,
2013-03-26 08:44:00,35.7,14.1,28.70,NNE,14,4.7,10.5,40,0.00,,,0.00,WSDL version 420,2013-03-26 12:44:00,
2013-03-26 08:46:00,35.7,14.0,28.70,East,83,3.3,10.5,40,0.00,,,0.00,WSDL version 420,2013-03-26 12:46:00,
2013-03-26 08:48:00,35.8,13.8,28.70,North,11,6.3,10.5,40,0.00,,,0.00,WSDL version 420,2013-03-26 12:48:00,
2013-03-26 08:50:00,35.8,13.9,28.70,NW,304,3.2,10.5,40,0.00,,,0.00,WSDL version 420,2013-03-26 12:50:00,
2013-03-26 08:54:00,36.0,14.0,28.70,NW,320,2.6,7.8,40,0.00,,,0.00,WSDL version 420,2013-03-26 12:54:00,
2013-03-26 08:58:00,36.1,14.1,28.70,NNW,347,3.4,6.5,40,0.00,,,0.00,WSDL version 420,2013-03-26 12:58:00,
2013-03-26 09:03:00,36.2,14.2,28.70,NE,45,2.0,6.5,40,0.00,,,0.00,WSDL version 420,2013-03-26 13:03:00,
2013-03-26 09:06:00,36.3,14.3,28.70,North,5,5.1,8.5,40,0.00,,,0.00,WSDL version 420,2013-03-26 13:06:00,
2013-03-26 09:10:00,36.3,14.3,28.70,North,356,4.9,8.5,40,0.00,,,0.00,WSDL version 420,2013-03-26 13:10:00,
2013-03-26 09:14:00,36.3,14.3,28.70,West,275,3.0,8.5,40,0.00,,,0.00,WSDL version 420,2013-03-26 13:14:00,
2013-03-26 09:18:00,36.4,14.4,28.70,NNW,345,4.0,7.4,40,0.00,,,0.00,WSDL version 420,2013-03-26 13:18:00,
2013-03-26 09:22:00,36.6,14.5,28.70,North,8,5.5,9.8,40,0.00,,,0.00,WSDL version 420,2013-03-26 13:22:00,
2013-03-26 09:24:00,36.7,14.6,28.70,WSW,251,3.5,9.8,40,0.00,,,0.00,WSDL version 420,2013-03-26 13:24:00,
2013-03-26 09:26:00,36.7,14.7,28.70,NNW,338,4.5,9.8,40,0.00,,,0.00,WSDL version 420,2013-03-26 13:26:00,
2013-03-26 09:30:00,36.8,14.8,28.73,NNE,23,6.5,11.2,40,0.00,,,0.00,WSDL version 420,2013-03-26 13:30:00,
2013-03-26 09:36:00,36.9,14.8,28.73,NNW,338,3.7,11.2,40,0.00,,,0.00,WSDL version 420,2013-03-26 13:36:00,
2013-03-26 09:38:00,36.9,14.9,28.73,NNW,338,3.9,7.6,40,0.00,,,0.00,WSDL version 420,2013-03-26 13:38:00,
2013-03-26 09:40:00,37.0,14.7,28.73,North,-999,-999.0,-999.0,39,0.00,,,0.00,WSDL version 420,2013-03-26 13:40:00,
2013-03-26 09:42:00,37.1,14.6,28.73,North,5,5.5,7.6,39,0.00,,,0.00,WSDL version 420,2013-03-26 13:42:00,
2013-03-26 09:46:00,37.4,14.7,28.73,NNE,23,5.2,8.1,39,0.00,,,0.00,WSDL version 420,2013-03-26 13:46:00,
2013-03-26 09:52:00,37.7,14.5,28.73,NW,304,5.3,10.5,38,0.00,,,0.00,WSDL version 420,2013-03-26 13:52:00,
2013-03-26 09:56:00,37.9,14.5,28.73,NW,304,5.0,10.5,38,0.00,,,0.00,WSDL version 420,2013-03-26 13:56:00,
2013-03-26 09:58:00,38.0,14.5,28.73,North,354,4.5,10.5,38,0.00,,,0.00,WSDL version 420,2013-03-26 13:58:00,
2013-03-26 10:00:00,38.0,14.4,28.73,NNE,23,3.8,10.5,37,0.00,,,0.00,WSDL version 420,2013-03-26 14:00:00,
2013-03-26 10:04:00,38.3,14.2,28.73,NW,315,6.9,9.4,36,0.00,,,0.00,WSDL version 420,2013-03-26 14:04:00,
2013-03-26 10:06:00,38.4,14.3,28.73,North,0,0.0,9.4,37,0.00,,,0.00,WSDL version 420,2013-03-26 14:06:00,
2013-03-26 10:10:00,38.5,14.2,28.73,North,0,0.0,7.4,37,0.00,,,0.00,WSDL version 420,2013-03-26 14:10:00,
2013-03-26 10:12:00,38.6,14.4,28.73,NNE,23,6.3,7.4,37,0.00,,,0.00,WSDL version 420,2013-03-26 14:12:00,
2013-03-26 10:18:00,38.8,14.6,28.73,North,-999,-999.0,-999.0,36,0.00,,,0.00,WSDL version 420,2013-03-26 14:18:00,
2013-03-26 10:24:00,39.2,14.7,28.73,North,-999,-999.0,-999.0,37,0.00,,,0.00,WSDL version 420,2013-03-26 14:24:00,
2013-03-26 10:26:00,39.2,14.5,28.73,North,360,5.4,8.5,35,0.00,,,0.00,WSDL version 420,2013-03-26 14:26:00,
2013-03-26 10:28:00,39.3,14.5,28.73,North,-999,-999.0,-999.0,35,0.00,,,0.00,WSDL version 420,2013-03-26 14:28:00,
2013-03-26 10:30:00,39.4,14.3,28.73,North,-999,-999.0,-999.0,35,0.00,,,0.00,WSDL version 420,2013-03-26 14:30:00,
2013-03-26 10:36:00,39.5,14.0,28.73,North,-999,-999.0,-999.0,34,0.00,,,0.00,WSDL version 420,2013-03-26 14:36:00,
2013-03-26 10:38:00,39.5,14.0,28.73,North,360,5.8,5.8,35,0.00,,,0.00,WSDL version 420,2013-03-26 14:38:00,
2013-03-26 10:42:00,39.7,14.1,28.76,North,-999,-999.0,-999.0,35,0.00,,,0.00,WSDL version 420,2013-03-26 14:42:00,
2013-03-26 10:44:00,39.8,14.2,28.76,North,-999,-999.0,-999.0,35,0.00,,,0.00,WSDL version 420,2013-03-26 14:44:00,
2013-03-26 10:48:00,40.0,14.5,28.76,North,-999,-999.0,-999.0,35,0.00,,,0.00,WSDL version 420,2013-03-26 14:48:00,
2013-03-26 10:54:00,40.2,13.9,28.76,North,-999,-999.0,-999.0,33,0.00,,,0.00,WSDL version 420,2013-03-26 14:54:00,
2013-03-26 10:56:00,40.1,13.7,28.76,North,-999,-999.0,-999.0,34,0.00,,,0.00,WSDL version 420,2013-03-26 14:56:00,
2013-03-26 11:02:00,40.5,14.3,28.76,North,-999,-999.0,-999.0,34,0.00,,,0.00,WSDL version 420,2013-03-26 15:02:00,
2013-03-26 11:04:00,40.6,14.4,28.76,North,-999,-999.0,-999.0,34,0.00,,,0.00,WSDL version 420,2013-03-26 15:04:00,
2013-03-26 11:10:00,40.9,14.2,28.76,North,-999,-999.0,-999.0,33,0.00,,,0.00,WSDL version 420,2013-03-26 15:10:00,
2013-03-26 11:12:00,41.0,14.1,28.76,North,-999,-999.0,-999.0,33,0.00,,,0.00,WSDL version 420,2013-03-26 15:12:00,
2013-03-26 11:16:00,40.9,13.6,28.76,North,-999,-999.0,-999.0,32,0.00,,,0.00,WSDL version 420,2013-03-26 15:16:00,
2013-03-26 11:20:00,40.9,13.6,28.76,North,360,4.0,4.9,32,0.00,,,0.00,WSDL version 420,2013-03-26 15:20:00,
2013-03-26 11:24:00,41.1,13.5,28.76,North,-999,-999.0,-999.0,32,0.00,,,0.00,WSDL version 420,2013-03-26 15:24:00,
2013-03-26 11:26:00,41.4,13.7,28.76,North,-999,-999.0,-999.0,32,0.00,,,0.00,WSDL version 420,2013-03-26 15:26:00,
2013-03-26 11:28:00,41.5,13.9,28.76,South,180,5.8,5.8,32,0.00,,,0.00,WSDL version 420,2013-03-26 15:28:00,
2013-03-26 11:32:00,41.9,14.3,28.76,North,-999,-999.0,-999.0,32,0.00,,,0.00,WSDL version 420,2013-03-26 15:32:00,
2013-03-26 11:38:00,41.7,13.8,28.76,North,-999,-999.0,-999.0,31,0.00,,,0.00,WSDL version 420,2013-03-26 15:38:00,
2013-03-26 11:40:00,41.8,13.8,28.76,North,-999,-999.0,-999.0,32,0.00,,,0.00,WSDL version 420,2013-03-26 15:40:00,
2013-03-26 11:42:00,41.9,13.8,28.79,North,-999,-999.0,-999.0,31,0.00,,,0.00,WSDL version 420,2013-03-26 15:42:00,
2013-03-26 11:44:00,42.0,13.7,28.79,North,-999,-999.0,-999.0,31,0.00,,,0.00,WSDL version 420,2013-03-26 15:44:00,
2013-03-26 11:48:00,42.0,13.9,28.79,North,-999,-999.0,-999.0,32,0.00,,,0.00,WSDL version 420,2013-03-26 15:48:00,
2013-03-26 11:50:00,42.0,14.2,28.79,NW,315,3.8,3.8,32,0.00,,,0.00,WSDL version 420,2013-03-26 15:50:00,
2013-03-26 11:54:00,42.1,13.9,28.79,North,-999,-999.0,-999.0,31,0.00,,,0.00,WSDL version 420,2013-03-26 15:54:00,
2013-03-26 11:58:00,42.1,13.7,28.79,SSW,203,4.3,7.4,31,0.00,,,0.00,WSDL version 420,2013-03-26 15:58:00,
2013-03-26 12:00:00,42.0,13.5,28.79,North,0,0.0,7.4,31,0.00,,,0.00,WSDL version 420,2013-03-26 16:00:00,
2013-03-26 12:02:00,41.9,13.4,28.79,NNE,23,7.4,12.1,31,0.00,,,0.00,WSDL version 420,2013-03-26 16:02:00,
2013-03-26 12:04:00,41.8,13.4,28.79,WNW,293,9.6,12.1,31,0.00,,,0.00,WSDL version 420,2013-03-26 16:04:00,
2013-03-26 12:06:00,41.8,13.3,28.79,NNE,30,6.6,12.1,31,0.00,,,0.00,WSDL version 420,2013-03-26 16:06:00,
2013-03-26 12:10:00,42.1,13.6,28.79,North,360,6.5,12.1,31,0.00,,,0.00,WSDL version 420,2013-03-26 16:10:00,
2013-03-26 12:12:00,42.3,13.8,28.79,North,-999,-999.0,-999.0,31,0.00,,,0.00,WSDL version 420,2013-03-26 16:12:00,
2013-03-26 12:14:00,42.4,13.9,28.79,NE,45,6.7,11.9,31,0.00,,,0.00,WSDL version 420,2013-03-26 16:14:00,
2013-03-26 12:18:00,42.8,14.2,28.79,NNW,345,4.3,11.9,31,0.00,,,0.00,WSDL version 420,2013-03-26 16:18:00,
2013-03-26 12:24:00,43.5,14.9,28.79,NNE,23,5.0,8.7,31,0.00,,,0.00,WSDL version 420,2013-03-26 16:24:00,
2013-03-26 12:26:00,43.6,15.0,28.79,North,-999,-999.0,-999.0,31,0.00,,,0.00,WSDL version 420,2013-03-26 16:26:00,
2013-03-26 12:28:00,43.7,15.0,28.79,North,360,7.4,8.7,31,0.00,,,0.00,WSDL version 420,2013-03-26 16:28:00,
2013-03-26 12:30:00,44.0,15.3,28.79,ENE,68,5.6,8.7,31,0.00,,,0.00,WSDL version 420,2013-03-26 16:30:00,
2013-03-26 12:34:00,44.3,15.5,28.79,North,-999,-999.0,-999.0,31,0.00,,,0.00,WSDL version 420,2013-03-26 16:34:00,
2013-03-26 12:36:00,44.2,15.5,28.79,North,-999,-999.0,-999.0,31,0.00,,,0.00,WSDL version 420,2013-03-26 16:36:00,
2013-03-26 12:38:00,44.2,15.2,28.79,North,11,6.0,6.0,30,0.00,,,0.00,WSDL version 420,2013-03-26 16:38:00,
2013-03-26 12:42:00,44.3,15.0,28.79,NW,315,7.2,8.5,30,0.00,,,0.00,WSDL version 420,2013-03-26 16:42:00,
2013-03-26 12:44:00,44.4,15.2,28.79,NW,315,4.9,8.5,31,0.00,,,0.00,WSDL version 420,2013-03-26 16:44:00,
2013-03-26 12:48:00,44.6,15.2,28.79,North,0,0.0,8.5,30,0.00,,,0.00,WSDL version 420,2013-03-26 16:48:00,
2013-03-26 12:50:00,44.8,15.3,28.79,North,-999,-999.0,-999.0,30,0.00,,,0.00,WSDL version 420,2013-03-26 16:50:00,
2013-03-26 12:52:00,44.8,15.3,28.79,North,-999,-999.0,-999.0,30,0.00,,,0.00,WSDL version 420,2013-03-26 16:52:00,
2013-03-26 12:54:00,44.7,15.1,28.79,North,-999,-999.0,-999.0,30,0.00,,,0.00,WSDL version 420,2013-03-26 16:54:00,
2013-03-26 12:58:00,45.1,15.5,28.79,NNE,23,4.3,5.6,30,0.00,,,0.00,WSDL version 420,2013-03-26 16:58:00,
2013-03-26 13:02:00,45.9,16.2,28.79,North,-999,-999.0,-999.0,30,0.00,,,0.00,WSDL version 420,2013-03-26 17:02:00,
2013-03-26 13:04:00,46.1,16.4,28.79,North,-999,-999.0,-999.0,30,0.00,,,0.00,WSDL version 420,2013-03-26 17:04:00,
2013-03-26 13:08:00,45.3,15.3,28.79,NE,45,4.5,4.9,30,0.00,,,0.00,WSDL version 420,2013-03-26 17:08:00,
2013-03-26 13:10:00,44.9,14.8,28.79,North,0,0.0,4.9,30,0.00,,,0.00,WSDL version 420,2013-03-26 17:10:00,
2013-03-26 13:14:00,44.8,15.0,28.79,North,360,5.6,8.5,30,0.00,,,0.00,WSDL version 420,2013-03-26 17:14:00,
2013-03-26 13:16:00,44.4,14.6,28.79,NNE,23,6.3,8.5,30,0.00,,,0.00,WSDL version 420,2013-03-26 17:16:00,
2013-03-26 13:20:00,44.2,14.7,28.79,North,360,6.5,10.3,30,0.00,,,0.00,WSDL version 420,2013-03-26 17:20:00,
2013-03-26 13:23:00,44.2,14.7,28.79,WNW,285,2.4,10.3,30,0.00,,,0.00,WSDL version 420,2013-03-26 17:23:00,
2013-03-26 13:25:00,44.2,14.7,28.79,NNW,345,4.0,10.3,30,0.00,,,0.00,WSDL version 420,2013-03-26 17:25:00,
2013-03-26 13:29:00,44.5,15.0,28.79,West,264,1.6,10.3,30,0.00,,,0.00,WSDL version 420,2013-03-26 17:29:00,
2013-03-26 13:33:00,45.7,16.1,28.79,SW,231,3.6,10.3,30,0.00,,,0.00,WSDL version 420,2013-03-26 17:33:00,
2013-03-26 13:37:00,46.0,15.7,28.79,North,360,8.1,10.5,29,0.00,,,0.00,WSDL version 420,2013-03-26 17:37:00,
2013-03-26 13:41:00,45.9,15.4,28.79,North,360,6.0,12.5,29,0.00,,,0.00,WSDL version 420,2013-03-26 17:41:00,
2013-03-26 13:43:00,46.0,15.6,28.79,North,-999,-999.0,-999.0,29,0.00,,,0.00,WSDL version 420,2013-03-26 17:43:00,
2013-03-26 13:45:00,46.2,15.7,28.79,North,-999,-999.0,-999.0,29,0.00,,,0.00,WSDL version 420,2013-03-26 17:45:00,
2013-03-26 13:47:00,46.3,15.8,28.79,North,-999,-999.0,-999.0,29,0.00,,,0.00,WSDL version 420,2013-03-26 17:47:00,
2013-03-26 13:53:00,47.0,16.4,28.79,North,-999,-999.0,-999.0,29,0.00,,,0.00,WSDL version 420,2013-03-26 17:53:00,
2013-03-26 13:55:00,46.9,16.2,28.79,North,-999,-999.0,-999.0,28,0.00,,,0.00,WSDL version 420,2013-03-26 17:55:00,
2013-03-26 13:57:00,46.9,16.1,28.79,North,-999,-999.0,-999.0,29,0.00,,,0.00,WSDL version 420,2013-03-26 17:57:00,
2013-03-26 14:01:00,46.7,16.2,28.79,North,-999,-999.0,-999.0,29,0.00,,,0.00,WSDL version 420,2013-03-26 18:01:00,
2013-03-26 14:03:00,46.9,16.3,28.79,North,-999,-999.0,-999.0,29,0.00,,,0.00,WSDL version 420,2013-03-26 18:03:00,
2013-03-26 14:05:00,47.0,16.1,28.79,North,-999,-999.0,-999.0,28,0.00,,,0.00,WSDL version 420,2013-03-26 18:05:00,
2013-03-26 14:07:00,47.0,15.9,28.79,North,-999,-999.0,-999.0,29,0.00,,,0.00,WSDL version 420,2013-03-26 18:07:00,
2013-03-26 14:11:00,47.0,15.8,28.79,North,-999,-999.0,-999.0,28,0.00,,,0.00,WSDL version 420,2013-03-26 18:11:00,
2013-03-26 14:13:00,46.9,15.5,28.79,North,-999,-999.0,-999.0,28,0.00,,,0.00,WSDL version 420,2013-03-26 18:13:00,
2013-03-26 14:17:00,47.8,16.4,28.79,North,-999,-999.0,-999.0,28,0.00,,,0.00,WSDL version 420,2013-03-26 18:17:00,
2013-03-26 14:23:00,49.0,17.3,28.79,North,-999,-999.0,-999.0,28,0.00,,,0.00,WSDL version 420,2013-03-26 18:23:00,
2013-03-26 14:25:00,48.4,16.8,28.79,North,11,8.9,15.7,28,0.00,,,0.00,WSDL version 420,2013-03-26 18:25:00,
2013-03-26 14:31:00,47.0,15.6,28.79,North,-999,-999.0,-999.0,28,0.00,,,0.00,WSDL version 420,2013-03-26 18:31:00,
2013-03-26 14:35:00,47.7,16.2,28.79,North,-999,-999.0,-999.0,28,0.00,,,0.00,WSDL version 420,2013-03-26 18:35:00,
2013-03-26 14:37:00,47.9,16.4,28.79,North,-999,-999.0,-999.0,28,0.00,,,0.00,WSDL version 420,2013-03-26 18:37:00,
2013-03-26 14:43:00,47.9,16.3,28.82,North,-999,-999.0,-999.0,28,0.00,,,0.00,WSDL version 420,2013-03-26 18:43:00,
2013-03-26 14:45:00,48.1,16.5,28.82,North,-999,-999.0,-999.0,28,0.00,,,0.00,WSDL version 420,2013-03-26 18:45:00,
2013-03-26 14:51:00,50.0,17.6,28.82,North,-999,-999.0,-999.0,27,0.00,,,0.00,WSDL version 420,2013-03-26 18:51:00,
2013-03-26 14:53:00,50.1,17.4,28.82,NW,304,7.4,8.7,27,0.00,,,0.00,WSDL version 420,2013-03-26 18:53:00,
2013-03-26 14:59:00,48.7,16.2,28.82,NE,45,6.5,9.8,27,0.00,,,0.00,WSDL version 420,2013-03-26 18:59:00,
2013-03-26 15:01:00,48.8,16.5,28.82,North,-999,-999.0,-999.0,27,0.00,,,0.00,WSDL version 420,2013-03-26 19:01:00,
2013-03-26 15:07:00,48.8,16.3,28.82,North,-999,-999.0,-999.0,27,0.00,,,0.00,WSDL version 420,2013-03-26 19:07:00,
2013-03-26 15:11:00,48.8,16.3,28.82,North,-999,-999.0,-999.0,27,0.00,,,0.00,WSDL version 420,2013-03-26 19:11:00,
2013-03-26 15:13:00,48.7,16.3,28.82,ESE,113,4.5,4.5,27,0.00,,,0.00,WSDL version 420,2013-03-26 19:13:00,
2013-03-26 15:15:00,48.5,16.0,28.82,North,-999,-999.0,-999.0,27,0.00,,,0.00,WSDL version 420,2013-03-26 19:15:00,
2013-03-26 15:21:00,48.0,15.8,28.82,North,-999,-999.0,-999.0,27,0.00,,,0.00,WSDL version 420,2013-03-26 19:21:00,
2013-03-26 15:23:00,47.8,15.5,28.82,North,-999,-999.0,-999.0,27,0.00,,,0.00,WSDL version 420,2013-03-26 19:23:00,
2013-03-26 15:27:00,47.8,15.4,28.82,North,-999,-999.0,-999.0,27,0.00,,,0.00,WSDL version 420,2013-03-26 19:27:00,
2013-03-26 15:29:00,48.1,15.7,28.82,North,-999,-999.0,-999.0,27,0.00,,,0.00,WSDL version 420,2013-03-26 19:29:00,
2013-03-26 15:31:00,48.2,15.8,28.82,North,-999,-999.0,-999.0,27,0.00,,,0.00,WSDL version 420,2013-03-26 19:31:00,
2013-03-26 15:33:00,48.1,15.7,28.82,North,-999,-999.0,-999.0,27,0.00,,,0.00,WSDL version 420,2013-03-26 19:33:00,
2013-03-26 15:37:00,48.1,15.7,28.82,North,-999,-999.0,-999.0,27,0.00,,,0.00,WSDL version 420,2013-03-26 19:37:00,
2013-03-26 15:39:00,48.1,15.7,28.82,North,-999,-999.0,-999.0,27,0.00,,,0.00,WSDL version 420,2013-03-26 19:39:00,
2013-03-26 15:41:00,47.9,15.5,28.82,North,-999,-999.0,-999.0,27,0.00,,,0.00,WSDL version 420,2013-03-26 19:41:00,
2013-03-26 15:43:00,47.5,15.2,28.82,North,-999,-999.0,-999.0,27,0.00,,,0.00,WSDL version 420,2013-03-26 19:43:00,
2013-03-26 15:45:00,47.3,15.0,28.82,North,-999,-999.0,-999.0,27,0.00,,,0.00,WSDL version 420,2013-03-26 19:45:00,
2013-03-26 15:53:00,46.6,14.8,28.82,NNE,13,7.2,12.3,27,0.00,,,0.00,WSDL version 420,2013-03-26 19:53:00,
2013-03-26 15:55:00,46.5,14.8,28.82,NNW,332,7.7,12.3,28,0.00,,,0.00,WSDL version 420,2013-03-26 19:55:00,
2013-03-26 15:59:00,46.7,15.3,28.82,WNW,293,4.9,12.3,28,0.00,,,0.00,WSDL version 420,2013-03-26 19:59:00,
2013-03-26 16:03:00,46.0,14.7,28.82,NNE,23,6.5,7.4,28,0.00,,,0.00,WSDL version 420,2013-03-26 20:03:00,
2013-03-26 16:05:00,45.4,14.2,28.82,NW,326,3.4,6.5,28,0.00,,,0.00,WSDL version 420,2013-03-26 20:05:00,
2013-03-26 16:07:00,45.0,13.9,28.82,NE,34,6.7,12.5,28,0.00,,,0.00,WSDL version 420,2013-03-26 20:07:00,
2013-03-26 16:13:00,44.2,13.9,28.82,NNE,23,6.4,15.2,29,0.00,,,0.00,WSDL version 420,2013-03-26 20:13:00,
2013-03-26 16:15:00,44.0,13.7,28.82,North,353,6.8,15.2,29,0.00,,,0.00,WSDL version 420,2013-03-26 20:15:00,
2013-03-26 16:19:00,43.9,13.7,28.82,SW,231,3.8,8.7,29,0.00,,,0.00,WSDL version 420,2013-03-26 20:19:00,
2013-03-26 16:23:00,44.2,14.0,28.82,NNE,30,3.4,6.0,29,0.00,,,0.00,WSDL version 420,2013-03-26 20:23:00,
2013-03-26 16:27:00,44.4,14.1,28.82,NNE,32,4.5,5.6,29,0.00,,,0.00,WSDL version 420,2013-03-26 20:27:00,
2013-03-26 16:33:00,43.7,13.5,28.82,NW,315,4.1,8.7,29,0.00,,,0.00,WSDL version 420,2013-03-26 20:33:00,
2013-03-26 16:38:00,44.2,13.9,28.82,NNW,338,6.3,7.2,29,0.00,,,0.00,WSDL version 420,2013-03-26 20:38:00,
2013-03-26 16:42:00,44.0,13.8,28.82,NW,311,3.4,7.2,29,0.00,,,0.00,WSDL version 420,2013-03-26 20:42:00,
2013-03-26 16:44:00,43.9,13.7,28.82,NW,326,5.0,7.2,29,0.00,,,0.00,WSDL version 420,2013-03-26 20:44:00,
2013-03-26 16:46:00,43.8,13.6,28.82,NW,326,4.3,5.8,29,0.00,,,0.00,WSDL version 420,2013-03-26 20:46:00,
2013-03-26 16:48:00,44.2,13.9,28.82,North,6,4.4,6.3,29,0.00,,,0.00,WSDL version 420,2013-03-26 20:48:00,
2013-03-26 16:52:00,44.6,14.3,28.82,NNE,18,4.4,8.5,29,0.00,,,0.00,WSDL version 420,2013-03-26 20:52:00,
2013-03-26 16:58:00,44.6,14.3,28.85,North,360,8.7,8.7,29,0.00,,,0.00,WSDL version 420,2013-03-26 20:58:00,
2013-03-26 17:00:00,44.1,13.8,28.85,North,11,7.0,7.6,29,0.00,,,0.00,WSDL version 420,2013-03-26 21:00:00,
2013-03-26 17:06:00,43.6,13.4,28.85,NNW,338,5.8,7.6,29,0.00,,,0.00,WSDL version 420,2013-03-26 21:06:00,
2013-03-26 17:08:00,43.5,13.4,28.85,North,349,4.8,7.6,29,0.00,,,0.00,WSDL version 420,2013-03-26 21:08:00,
2013-03-26 17:10:00,43.5,13.3,28.85,NNW,338,6.9,6.9,29,0.00,,,0.00,WSDL version 420,2013-03-26 21:10:00,
2013-03-26 17:14:00,43.4,13.3,28.82,North,0,0.0,6.0,29,0.00,,,0.00,WSDL version 420,2013-03-26 21:14:00,
2013-03-26 17:16:00,43.6,13.4,28.82,North,8,6.9,10.3,29,0.00,,,0.00,WSDL version 420,2013-03-26 21:16:00,
2013-03-26 17:22:00,43.5,13.4,28.82,NNE,15,3.7,11.9,29,0.00,,,0.00,WSDL version 420,2013-03-26 21:22:00,
2013-03-26 17:24:00,43.7,13.5,28.82,NNW,333,2.8,11.9,29,0.00,,,0.00,WSDL version 420,2013-03-26 21:24:00,
2013-03-26 17:30:00,43.5,13.4,28.85,NE,36,2.7,8.7,29,0.00,,,0.00,WSDL version 420,2013-03-26 21:30:00,
2013-03-26 17:34:00,43.2,13.2,28.85,North,360,6.4,10.1,29,0.00,,,0.00,WSDL version 420,2013-03-26 21:34:00,
2013-03-26 17:36:00,43.0,13.2,28.85,NW,315,3.9,10.1,30,0.00,,,0.00,WSDL version 420,2013-03-26 21:36:00,
2013-03-26 17:42:00,42.2,13.0,28.85,North,360,5.7,10.1,30,0.00,,,0.00,WSDL version 420,2013-03-26 21:42:00,
2013-03-26 17:44:00,42.2,13.0,28.85,WNW,293,4.8,8.1,30,0.00,,,0.00,WSDL version 420,2013-03-26 21:44:00,
2013-03-26 17:50:00,42.1,12.9,28.85,NW,315,5.6,10.1,30,0.00,,,0.00,WSDL version 420,2013-03-26 21:50:00,
2013-03-26 17:56:00,42.1,12.9,28.85,NE,45,4.7,4.9,30,0.00,,,0.00,WSDL version 420,2013-03-26 21:56:00,
2013-03-26 18:02:00,41.8,13.4,28.82,North,6,5.9,12.5,31,0.00,,,0.00,WSDL version 420,2013-03-26 22:02:00,
2013-03-26 18:06:00,41.5,13.1,28.82,NW,315,4.7,12.5,31,0.00,,,0.00,WSDL version 420,2013-03-26 22:06:00,
2013-03-26 18:08:00,41.4,13.0,28.82,NNW,338,5.4,12.5,31,0.00,,,0.00,WSDL version 420,2013-03-26 22:08:00,
2013-03-26 18:10:00,41.2,12.9,28.82,ENE,75,4.6,12.5,31,0.00,,,0.00,WSDL version 420,2013-03-26 22:10:00,
2013-03-26 18:14:00,41.1,12.8,28.85,NNE,28,5.7,8.5,31,0.00,,,0.00,WSDL version 420,2013-03-26 22:14:00,
2013-03-26 18:16:00,41.0,12.7,28.85,ENE,68,5.4,8.5,31,0.00,,,0.00,WSDL version 420,2013-03-26 22:16:00,
2013-03-26 18:18:00,41.0,12.7,28.85,NE,56,3.6,8.5,31,0.00,,,0.00,WSDL version 420,2013-03-26 22:18:00,
2013-03-26 18:24:00,40.7,13.2,28.85,NE,45,5.9,9.8,32,0.00,,,0.00,WSDL version 420,2013-03-26 22:24:00,
2013-03-26 18:28:00,40.6,13.1,28.85,NNE,15,2.7,10.7,32,0.00,,,0.00,WSDL version 420,2013-03-26 22:28:00,
2013-03-26 18:30:00,40.6,13.0,28.85,NE,38,8.1,10.7,32,0.00,,,0.00,WSDL version 420,2013-03-26 22:30:00,
2013-03-26 18:36:00,40.5,12.9,28.85,NNE,23,4.2,10.7,32,0.00,,,0.00,WSDL version 420,2013-03-26 22:36:00,
2013-03-26 18:40:00,40.5,12.9,28.85,North,360,4.2,8.1,32,0.00,,,0.00,WSDL version 420,2013-03-26 22:40:00,
2013-03-26 18:42:00,40.5,13.2,28.85,WNW,300,3.2,5.8,33,0.00,,,0.00,WSDL version 420,2013-03-26 22:42:00,
2013-03-26 18:48:00,40.4,13.5,28.85,West,270,3.0,6.3,33,0.00,,,0.00,WSDL version 420,2013-03-26 22:48:00,
2013-03-26 18:54:00,40.0,13.3,28.85,North,360,8.3,10.3,33,0.00,,,0.00,WSDL version 420,2013-03-26 22:54:00,
2013-03-26 18:56:00,39.9,13.1,28.85,NW,323,4.9,10.3,33,0.00,,,0.00,WSDL version 420,2013-03-26 22:56:00,
2013-03-26 19:02:00,39.8,13.0,28.85,North,6,2.1,10.3,33,0.00,,,0.00,WSDL version 420,2013-03-26 23:02:00,
2013-03-26 19:04:00,39.8,13.0,28.85,NW,326,3.2,6.3,33,0.00,,,0.00,WSDL version 420,2013-03-26 23:04:00,
2013-03-26 19:10:00,39.7,13.2,28.85,West,278,2.2,6.0,34,0.00,,,0.00,WSDL version 420,2013-03-26 23:10:00,
2013-03-26 19:12:00,39.7,13.5,28.85,West,263,2.2,6.0,34,0.00,,,0.00,WSDL version 420,2013-03-26 23:12:00,
2013-03-26 19:16:00,39.6,13.5,28.85,ESE,113,2.5,4.3,34,0.00,,,0.00,WSDL version 420,2013-03-26 23:16:00,
2013-03-26 19:18:00,39.6,13.5,28.85,North,360,2.0,4.3,34,0.00,,,0.00,WSDL version 420,2013-03-26 23:18:00,
2013-03-26 19:20:00,39.6,13.5,28.85,NNE,13,0.0,3.6,34,0.00,,,0.00,WSDL version 420,2013-03-26 23:20:00,
2013-03-26 19:24:00,39.6,13.8,28.85,NNE,18,3.9,6.0,35,0.00,,,0.00,WSDL version 420,2013-03-26 23:24:00,
2013-03-26 19:26:00,39.6,14.2,28.85,NNW,347,2.6,6.0,35,0.00,,,0.00,WSDL version 420,2013-03-26 23:26:00,
2013-03-26 19:28:00,39.6,14.2,28.85,SW,225,3.1,6.0,35,0.00,,,0.00,WSDL version 420,2013-03-26 23:28:00,
2013-03-26 19:32:00,39.5,14.1,28.85,NNE,30,3.8,6.0,35,0.00,,,0.00,WSDL version 420,2013-03-26 23:32:00,
2013-03-26 19:36:00,39.4,14.0,28.85,ENE,72,2.7,8.5,35,0.00,,,0.00,WSDL version 420,2013-03-26 23:36:00,
2013-03-26 19:38:00,39.4,14.0,28.85,WSW,248,1.1,8.5,35,0.00,,,0.00,WSDL version 420,2013-03-26 23:38:00,
2013-03-26 19:42:00,39.2,13.9,28.85,North,360,2.5,8.5,36,0.00,,,0.00,WSDL version 420,2013-03-26 23:42:00,
2013-03-26 19:48:00,38.9,14.2,28.85,ENE,63,3.6,5.8,36,0.00,,,0.00,WSDL version 420,2013-03-26 23:48:00,
2013-03-26 19:50:00,38.8,14.2,28.85,NE,38,2.2,5.8,36,0.00,,,0.00,WSDL version 420,2013-03-26 23:50:00,
2013-03-26 19:56:00,38.7,14.0,28.85,NE,34,3.7,7.8,36,0.00,,,0.00,WSDL version 420,2013-03-26 23:56:00,
2013-03-26 19:58:00,38.7,14.0,28.88,North,349,4.1,7.8,36,0.00,,,0.00,WSDL version 420,2013-03-26 23:58:00,
2013-03-26 20:02:00,38.5,13.9,28.88,NW,326,2.5,5.8,36,0.00,,,0.00,WSDL version 420,2013-03-27 00:02:00,
2013-03-26 20:04:00,38.5,13.8,28.88,East,83,3.7,5.8,36,0.00,,,0.00,WSDL version 420,2013-03-27 00:04:00,
2013-03-26 20:10:00,38.5,13.9,28.88,East,98,1.9,4.3,37,0.00,,,0.00,WSDL version 420,2013-03-27 00:10:00,
2013-03-26 20:14:00,38.4,14.7,28.88,South,191,1.5,4.3,37,0.00,,,0.00,WSDL version 420,2013-03-27 00:14:00,
2013-03-26 20:16:00,38.4,14.8,28.88,SSW,194,1.6,3.4,38,0.00,,,0.00,WSDL version 420,2013-03-27 00:16:00,
2013-03-26 20:20:00,38.2,14.9,28.88,North,11,4.5,4.5,38,0.00,,,0.00,WSDL version 420,2013-03-27 00:20:00,
2013-03-26 20:22:00,38.2,14.8,28.88,NW,326,2.0,4.3,38,0.00,,,0.00,WSDL version 420,2013-03-27 00:22:00,
2013-03-26 20:26:00,38.1,14.8,28.88,WSW,243,1.4,4.3,38,0.00,,,0.00,WSDL version 420,2013-03-27 00:26:00,
2013-03-26 20:30:00,38.1,14.7,28.88,WSW,240,1.0,2.9,38,0.00,,,0.00,WSDL version 420,2013-03-27 00:30:00,
2013-03-26 20:34:00,37.9,15.0,28.88,East,98,3.0,4.7,39,0.00,,,0.00,WSDL version 420,2013-03-27 00:34:00,
2013-03-26 20:40:00,37.9,15.2,28.88,North,360,3.4,6.0,39,0.00,,,0.00,WSDL version 420,2013-03-27 00:40:00,
2013-03-26 20:42:00,37.9,15.2,28.88,WSW,248,1.6,6.0,39,0.00,,,0.00,WSDL version 420,2013-03-27 00:42:00,
2013-03-26 20:44:00,37.9,15.2,28.88,South,180,1.3,6.0,39,0.00,,,0.00,WSDL version 420,2013-03-27 00:44:00,
2013-03-26 20:50:00,37.8,15.1,28.88,SSW,208,3.5,5.4,39,0.00,,,0.00,WSDL version 420,2013-03-27 00:50:00,
2013-03-26 20:52:00,37.9,15.2,28.88,SW,233,1.0,5.4,39,0.00,,,0.00,WSDL version 420,2013-03-27 00:52:00,
2013-03-26 20:54:00,37.9,15.2,28.88,NW,315,0.9,4.3,39,0.00,,,0.00,WSDL version 420,2013-03-27 00:54:00,
2013-03-26 21:00:00,37.8,15.0,28.88,NNW,330,3.0,3.8,39,0.00,,,0.00,WSDL version 420,2013-03-27 01:00:00,
2013-03-26 21:04:00,37.8,15.0,28.88,South,180,2.2,5.6,39,0.00,,,0.00,WSDL version 420,2013-03-27 01:04:00,
2013-03-26 21:06:00,37.8,15.0,28.88,SW,236,2.2,5.6,39,0.00,,,0.00,WSDL version 420,2013-03-27 01:06:00,
2013-03-26 21:10:00,37.8,15.0,28.88,SW,214,2.0,5.6,39,0.00,,,0.00,WSDL version 420,2013-03-27 01:10:00,
2013-03-26 21:12:00,37.8,15.0,28.88,SW,236,1.7,3.1,39,0.00,,,0.00,WSDL version 420,2013-03-27 01:12:00,
2013-03-26 21:14:00,37.8,15.0,28.88,South,185,2.2,3.6,39,0.00,,,0.00,WSDL version 420,2013-03-27 01:14:00,
2013-03-26 21:18:00,37.8,15.0,28.88,WNW,293,2.1,4.5,39,0.00,,,0.00,WSDL version 420,2013-03-27 01:18:00,
2013-03-26 21:22:00,37.7,15.0,28.88,SW,214,1.1,4.5,39,0.00,,,0.00,WSDL version 420,2013-03-27 01:22:00,
2013-03-26 21:26:00,37.7,15.1,28.88,West,281,2.6,3.8,39,0.00,,,0.00,WSDL version 420,2013-03-27 01:26:00,
2013-03-26 21:28:00,37.6,15.1,28.88,SSW,212,1.8,4.0,40,0.00,,,0.00,WSDL version 420,2013-03-27 01:28:00,
2013-03-26 21:30:00,37.6,15.2,28.88,East,79,2.5,4.0,40,0.00,,,0.00,WSDL version 420,2013-03-27 01:30:00,
2013-03-26 21:36:00,37.6,15.2,28.88,WSW,240,3.9,8.7,40,0.00,,,0.00,WSDL version 420,2013-03-27 01:36:00,
2013-03-26 21:38:00,37.6,15.4,28.88,SW,225,2.2,8.7,40,0.00,,,0.00,WSDL version 420,2013-03-27 01:38:00,
2013-03-26 21:42:00,37.6,15.4,28.91,South,180,1.4,8.7,40,0.00,,,0.00,WSDL version 420,2013-03-27 01:42:00,
2013-03-26 21:44:00,37.6,15.4,28.91,SSW,203,3.6,8.7,40,0.00,,,0.00,WSDL version 420,2013-03-27 01:44:00,
2013-03-26 21:46:00,37.6,15.4,28.91,WSW,240,5.7,6.3,40,0.00,,,0.00,WSDL version 420,2013-03-27 01:46:00,
2013-03-26 21:50:00,37.6,15.4,28.91,South,184,2.6,6.3,40,0.00,,,0.00,WSDL version 420,2013-03-27 01:50:00,
2013-03-26 21:52:00,37.6,15.4,28.91,SSW,207,2.7,6.3,40,0.00,,,0.00,WSDL version 420,2013-03-27 01:52:00,
2013-03-26 21:56:00,37.6,15.4,28.91,SSE,163,2.1,6.3,40,0.00,,,0.00,WSDL version 420,2013-03-27 01:56:00,
2013-03-26 22:00:00,37.6,15.4,28.91,SW,231,2.7,3.8,40,0.00,,,0.00,WSDL version 420,2013-03-27 02:00:00,
2013-03-26 22:02:00,37.6,15.4,28.91,WSW,242,2.3,3.8,40,0.00,,,0.00,WSDL version 420,2013-03-27 02:02:00,
2013-03-26 22:06:00,37.5,15.5,28.91,NNE,29,2.8,4.9,40,0.00,,,0.00,WSDL version 420,2013-03-27 02:06:00,
2013-03-26 22:08:00,37.4,15.6,28.91,SW,233,2.8,4.9,41,0.00,,,0.00,WSDL version 420,2013-03-27 02:08:00,
2013-03-26 22:10:00,37.4,15.7,28.91,ENE,72,2.6,7.2,41,0.00,,,0.00,WSDL version 420,2013-03-27 02:10:00,
2013-03-26 22:24:00,37.4,15.8,28.91,West,281,2.3,7.6,41,0.00,,,0.00,WSDL version 420,2013-03-27 02:24:00,
2013-03-26 22:26:00,37.4,15.6,28.91,North,360,1.0,7.6,40,0.00,,,0.00,WSDL version 420,2013-03-27 02:26:00,
2013-03-26 22:30:00,37.4,15.3,28.91,South,169,2.2,4.0,40,0.00,,,0.00,WSDL version 420,2013-03-27 02:30:00,
2013-03-26 22:34:00,37.4,15.8,28.91,NE,49,2.1,7.2,41,0.00,,,0.00,WSDL version 420,2013-03-27 02:34:00,
2013-03-26 22:38:00,37.4,15.9,28.91,SW,214,4.1,10.7,41,0.00,,,0.00,WSDL version 420,2013-03-27 02:38:00,
2013-03-26 22:40:00,37.4,15.6,28.91,North,354,3.5,10.7,40,0.00,,,0.00,WSDL version 420,2013-03-27 02:40:00,
2013-03-26 22:44:00,37.4,15.3,28.91,NNW,338,3.4,10.7,40,0.00,,,0.00,WSDL version 420,2013-03-27 02:44:00,
2013-03-26 22:46:00,37.4,15.3,28.91,North,354,5.7,8.7,40,0.00,,,0.00,WSDL version 420,2013-03-27 02:46:00,
2013-03-26 22:50:00,37.3,15.4,28.91,NW,309,1.1,7.6,41,0.00,,,0.00,WSDL version 420,2013-03-27 02:50:00,
2013-03-26 22:56:00,37.2,15.3,28.91,NNW,342,5.0,9.8,40,0.00,,,0.00,WSDL version 420,2013-03-27 02:56:00,
2013-03-26 22:58:00,37.2,15.3,28.91,NW,323,6.9,10.1,40,0.00,,,0.00,WSDL version 420,2013-03-27 02:58:00,
2013-03-26 23:04:00,37.1,15.0,28.91,NNE,23,4.1,10.1,40,0.00,,,0.00,WSDL version 420,2013-03-27 03:04:00,
2013-03-26 23:06:00,37.0,15.0,28.91,North,351,5.6,10.1,40,0.00,,,0.00,WSDL version 420,2013-03-27 03:06:00,
2013-03-26 23:10:00,37.0,15.0,28.91,NNW,338,5.8,7.8,40,0.00,,,0.00,WSDL version 420,2013-03-27 03:10:00,
2013-03-26 23:16:00,36.9,14.8,28.91,NW,323,3.8,7.4,40,0.00,,,0.00,WSDL version 420,2013-03-27 03:16:00,
2013-03-26 23:18:00,36.9,14.8,28.91,NW,315,0.6,6.5,40,0.00,,,0.00,WSDL version 420,2013-03-27 03:18:00,
2013-03-26 23:20:00,36.9,14.8,28.91,WNW,293,2.5,6.5,40,0.00,,,0.00,WSDL version 420,2013-03-27 03:20:00,
2013-03-26 23:22:00,36.8,14.7,28.91,SSE,167,1.5,6.5,40,0.00,,,0.00,WSDL version 420,2013-03-27 03:22:00,
2013-03-26 23:26:00,36.7,14.6,28.91,North,360,4.9,4.9,40,0.00,,,0.00,WSDL version 420,2013-03-27 03:26:00,
2013-03-26 23:32:00,36.6,14.6,28.94,ENE,62,1.7,4.3,40,0.00,,,0.00,WSDL version 420,2013-03-27 03:32:00,
2013-03-26 23:34:00,36.5,14.5,28.94,South,185,1.6,4.3,40,0.00,,,0.00,WSDL version 420,2013-03-27 03:34:00,
2013-03-26 23:40:00,36.5,14.5,28.94,ENE,72,2.4,3.8,40,0.00,,,0.00,WSDL version 420,2013-03-27 03:40:00,
2013-03-26 23:42:00,36.4,14.4,28.91,West,270,2.8,3.8,40,0.00,,,0.00,WSDL version 420,2013-03-27 03:42:00,
2013-03-26 23:46:00,36.3,14.3,28.91,West,267,0.9,3.8,40,0.00,,,0.00,WSDL version 420,2013-03-27 03:46:00,
2013-03-26 23:48:00,36.3,14.3,28.91,SE,144,1.3,3.6,40,0.00,,,0.00,WSDL version 420,2013-03-27 03:48:00,
2013-03-26 23:52:00,36.2,14.2,28.91,SSE,162,0.7,2.7,40,0.00,,,0.00,WSDL version 420,2013-03-27 03:52:00,
2013-03-26 23:54:00,36.1,14.1,28.91,WSW,240,1.8,2.9,40,0.00,,,0.00,WSDL version 420,2013-03-27 03:54:00,
2013-03-26 23:58:00,36.1,14.1,28.91,SSE,163,1.0,2.9,40,0.00,,,0.00,WSDL version 420,2013-03-27 03:58:00,